Rochelle, IL

9:54 AM CST on November 21, 2019 (GMT -0600)
Rochelle

Weather History for KRPJ - September, 2019

Change the Weather History Date:

Saturday, September 28, 2019

  Actual Average (KRFD) Record (KRFD)
Temperature  
Mean Temperature 59 °F -  
Max Temperature 63 °F 69 °F 91 °F (1952)
Min Temperature 54 °F 46 °F 24 °F (1942)
Degree Days  
Heating Degree Days 6    
Growing Degree Days 9 (Base 50)    
Moisture  
Dew Point 58 °F    
Average Humidity 96    
Maximum Humidity 100    
Minimum Humidity 79    
Precipitation  
Precipitation 0.20 in - - ()
Sea Level Pressure  
Sea Level Pressure 30.07 in    
Wind  
Wind Speed 9 mph ()    
Max Wind Speed 17 mph    
Max Gust Speed 24 mph    
Visibility 7.1 miles    
Events Rain , Thunderstorm    
Averages and records for this station are not official NWS values.
T = Trace of Precipitation, MM = Missing Value Source: Averaged Metar Reports

Daily Weather History Graph

Daily Weather History Graph

Search for Another Location

Airport or City:

Astronomy

Sep. 28, 2019 Rise Set
Actual Time 6:49 AM CDT 6:43 PM CDT
Civil Twilight 6:22 AM CDT 7:11 PM CDT
Nautical Twilight 5:49 AM CDT 7:43 PM CDT
Astronomical Twilight 5:16 AM CDT 8:16 PM CDT
Moon 6:24 AM CDT (9/28) 7:09 PM CDT (9/28)
Length of Visible Light 12h 49m
Length of Day
11h 53m
Waning Crescent, 0% of the Moon is Illuminated
Sep 28
Waning Crescent
Sep 28
New
Oct 5
First Quarter
Oct 13
Full
Oct 21
Last Quarter

Hourly Weather History & Observations

Time (CDT) Temp. Dew Point Humidity Pressure Visibility Wind Dir Wind Speed Gust Speed Precip Events Conditions
12:35 AM 64.6 °F 64.6 °F 100% 29.83 in 5.0 mi NNE 8.1 mph - 0.02 in Rain , Thunderstorm Rain
12:55 AM 63.7 °F 63.7 °F 100% 29.83 in 5.0 mi NE 10.4 mph - 0.03 in Rain , Thunderstorm Light Thunderstorms and Rain
1:15 AM 63.3 °F 63.3 °F 100% 29.85 in 5.0 mi NNE 8.1 mph - 0.01 in Rain , Thunderstorm Thunderstorms and Rain
1:35 AM 63.5 °F 63.5 °F 100% 29.87 in 5.0 mi NE 3.5 mph - 0.03 in Rain , Thunderstorm Light Thunderstorms and Rain
1:55 AM 63.5 °F 63.5 °F 100% 29.87 in 4.0 mi ENE 4.6 mph - 0.05 in Rain , Thunderstorm Rain
2:15 AM 63.1 °F 63.1 °F 100% 29.84 in 3.0 mi NE 9.2 mph - 0.07 in Rain Light Rain
2:35 AM 62.6 °F 62.6 °F 100% 29.85 in 5.0 mi North 6.9 mph - 0.07 in Rain Light Rain
2:55 AM 62.6 °F 62.6 °F 100% 29.85 in 5.0 mi NNE 9.2 mph - 0.07 in   Overcast
3:15 AM 62.6 °F 62.6 °F 100% 29.87 in 7.0 mi North 6.9 mph - N/A   Overcast
3:35 AM 62.2 °F 62.2 °F 100% 29.87 in 7.0 mi North 8.1 mph - N/A   Overcast
3:55 AM 62.1 °F 62.1 °F 100% 29.89 in 7.0 mi NNE 9.2 mph - N/A   Overcast
4:15 AM 62.1 °F 62.1 °F 100% 29.92 in 7.0 mi NE 5.8 mph - N/A   Overcast
4:35 AM 62.2 °F 62.2 °F 100% 29.92 in 10.0 mi NE 6.9 mph - N/A   Overcast
4:55 AM 62.1 °F 62.1 °F 100% 29.94 in 7.0 mi ENE 8.1 mph - N/A   Overcast
5:15 AM 62.1 °F 62.1 °F 100% 29.95 in 7.0 mi East 5.8 mph - N/A Rain Light Rain
5:35 AM 61.3 °F 61.2 °F 99% 29.96 in 7.0 mi ENE 8.1 mph - N/A   Drizzle
5:55 AM 61.0 °F 61.0 °F 100% 29.96 in 5.0 mi NE 10.4 mph - 0.02 in Rain Rain
6:15 AM 60.8 °F 60.8 °F 100% 29.97 in 5.0 mi NE 8.1 mph - 0.01 in Rain Rain
6:35 AM 60.8 °F 60.8 °F 100% 29.98 in 7.0 mi ENE 9.2 mph - 0.01 in   Overcast
6:55 AM 60.8 °F 60.6 °F 99% 29.99 in 7.0 mi NE 6.9 mph - 0.01 in   Overcast
7:15 AM 60.8 °F 60.4 °F 99% 29.99 in 5.0 mi ENE 8.1 mph - 0.01 in Rain Rain
7:35 AM 60.4 °F 60.4 °F 100% 30.01 in 4.0 mi NNE 8.1 mph - 0.02 in   Drizzle
7:55 AM 60.3 °F 60.3 °F 100% 30.02 in 4.0 mi NE 9.2 mph - 0.02 in   Overcast
8:15 AM 60.1 °F 60.1 °F 100% 30.02 in 2.5 mi NE 9.2 mph - N/A   Light Drizzle
8:35 AM 60.1 °F 60.1 °F 100% 30.03 in 2.5 mi NE 10.4 mph 16.1 mph N/A   Overcast
8:55 AM 60.3 °F 60.3 °F 100% 30.03 in 2.5 mi NE 11.5 mph - N/A   Overcast
9:15 AM 60.4 °F 60.4 °F 100% 30.05 in 3.0 mi NE 11.5 mph - N/A   Overcast
9:35 AM 59.7 °F 59.7 °F 100% 30.06 in 1.8 mi NE 11.5 mph - N/A   Overcast
9:55 AM 59.4 °F 59.4 °F 100% 30.07 in 1.5 mi NE 11.5 mph - N/A   Overcast
10:15 AM 59.4 °F 59.4 °F 100% 30.07 in 1.8 mi NE 12.7 mph - N/A   Overcast
10:35 AM 60.1 °F 60.1 °F 100% 30.08 in 3.0 mi NE 11.5 mph - N/A   Overcast
10:55 AM 59.2 °F 59.2 °F 100% 30.09 in 4.0 mi NE 12.7 mph - N/A   Overcast
11:15 AM 59.4 °F 59.4 °F 100% 30.10 in 7.0 mi NE 11.5 mph - N/A   Overcast
11:35 AM 59.4 °F 59.4 °F 100% 30.11 in 5.0 mi NE 12.7 mph - N/A   Overcast
11:55 AM 59.7 °F 59.5 °F 99% 30.12 in 7.0 mi ENE 10.4 mph - N/A   Overcast
12:15 PM 59.7 °F 59.5 °F 99% 30.12 in 10.0 mi ENE 9.2 mph - N/A   Overcast
12:35 PM 59.4 °F 59.2 °F 99% 30.13 in 7.0 mi NE 10.4 mph - N/A   Overcast
12:55 PM 59.4 °F 59.2 °F 99% 30.14 in 10.0 mi ENE 11.5 mph - N/A   Overcast
1:15 PM 59.4 °F 59.0 °F 99% 30.14 in 10.0 mi ENE 11.5 mph - N/A   Overcast
1:35 PM 59.9 °F 59.0 °F 97% 30.14 in 10.0 mi ENE 13.8 mph - N/A   Overcast
1:55 PM 59.4 °F 58.6 °F 97% 30.14 in 7.0 mi NE 13.8 mph 18.4 mph N/A   Overcast
2:15 PM 59.0 °F 57.7 °F 96% 30.15 in 10.0 mi ENE 13.8 mph 21.9 mph N/A   Overcast
2:35 PM 59.0 °F 57.6 °F 95% 30.15 in 10.0 mi ENE 13.8 mph 18.4 mph N/A   Overcast
2:55 PM 58.8 °F 57.2 °F 94% 30.16 in 7.0 mi ENE 16.1 mph - N/A   Overcast
3:15 PM 58.1 °F 57.2 °F 97% 30.16 in 1.8 mi ENE 12.7 mph 20.7 mph N/A   Overcast
3:35 PM 58.3 °F 57.7 °F 98% 30.16 in 2.5 mi ENE 15.0 mph 18.4 mph N/A   Overcast
4:15 PM 57.4 °F 56.8 °F 98% 30.17 in 5.0 mi ENE 12.7 mph - N/A   Overcast
4:35 PM 58.1 °F 56.8 °F 96% 30.16 in 10.0 mi ENE 13.8 mph - N/A   Overcast
4:55 PM 57.6 °F 55.9 °F 94% 30.17 in 10.0 mi NE 15.0 mph - N/A   Overcast
5:15 PM 57.2 °F 55.4 °F 94% 30.17 in 10.0 mi NE 17.3 mph 20.7 mph N/A   Overcast
5:35 PM 56.7 °F 54.9 °F 94% 30.16 in 10.0 mi ENE 16.1 mph - N/A   Overcast
5:55 PM 56.7 °F 54.5 °F 92% 30.16 in 10.0 mi ENE 16.1 mph 20.7 mph N/A   Overcast
6:15 PM 56.8 °F 54.5 °F 92% 30.16 in 10.0 mi ENE 12.7 mph 23.0 mph N/A   Overcast
6:35 PM 56.7 °F 52.2 °F 85% 30.16 in 10.0 mi ENE 17.3 mph 24.2 mph N/A   Overcast
6:55 PM 56.3 °F 51.8 °F 85% 30.16 in 10.0 mi ENE 12.7 mph 18.4 mph N/A   Overcast
7:15 PM 56.3 °F 51.4 °F 84% 30.18 in 10.0 mi East 11.5 mph - N/A   Overcast
7:35 PM 56.3 °F 50.9 °F 82% 30.18 in 10.0 mi ENE 10.4 mph - N/A   Overcast
8:00 PM 56.3 °F 50.0 °F 79% 30.20 in 10.0 mi East 11.5 mph - N/A   Overcast
8:15 PM 55.8 °F 50.9 °F 84% 30.19 in 10.0 mi ENE 11.5 mph 17.3 mph N/A   Overcast
8:35 PM 55.4 °F 51.1 °F 85% 30.20 in 10.0 mi NE 16.1 mph 19.6 mph N/A   Overcast
8:55 PM 55.2 °F 50.9 °F 85% 30.20 in 10.0 mi ENE 13.8 mph - N/A   Overcast
9:10 PM 55.0 °F 50.9 °F 86% 30.21 in 10.0 mi ENE 12.7 mph - N/A   Overcast
9:35 PM 55.0 °F 50.5 °F 85% 30.21 in 10.0 mi ENE 10.4 mph - N/A   Overcast
9:55 PM 54.7 °F 50.9 °F 87% 30.21 in 10.0 mi ENE 15.0 mph - N/A   Overcast
10:15 PM 54.5 °F 51.3 °F 89% 30.21 in 10.0 mi ENE 15.0 mph 18.4 mph N/A   Overcast
10:35 PM 54.7 °F 51.4 °F 89% 30.21 in 10.0 mi ENE 10.4 mph - N/A   Overcast
10:55 PM 54.1 °F 51.8 °F 92% 30.20 in 10.0 mi ENE 11.5 mph - N/A Rain Light Rain
11:15 PM 54.5 °F 51.4 °F 89% 30.19 in 10.0 mi East 11.5 mph 17.3 mph N/A Rain Light Rain
11:35 PM 54.5 °F 51.8 °F 91% 30.19 in 10.0 mi East 11.5 mph 16.1 mph N/A   Overcast
11:55 PM 54.7 °F 52.3 °F 92% 30.20 in 10.0 mi ENE 6.9 mph - N/A Rain Rain